DMSP 5D-2 F13 DEB, 40478

Orbit data source: Space-Track

DMSP 5D-2 F13 DEB, 40478 is space debris in SSO originally from a launch on Fri, 24 Mar 1995 UTC launched from the Air Force Western Test Range (AFWTR). Debris objects in space refer to the collection of defunct objects orbiting the Earth. Examples of debris include non-operational satellites, rocket bodies, and fragments generated from explosions, collisions, or faulty payload assembly.

Loading next visibility...
Identifier
40478, 1995-015BW
Orbit
SSO
Country
Flag of USUS
Related business
Manufacturer
Unknown
Mission
Spacecraft
Bus & Motor
Unknown
Mass
Unknown
Launch date (UTC)
1995-03-24 (31 years ago)
Launch vehicle
Unknown
Launch site
Air Force Western Test Range (AFWTR)
Object type
Payload
Rocket body
Debris
Shape & HBR
Unknown shape, 0.1 m
Radar Cross Section
Small (<0.1 m²)

Expand to show TLE details & history
Last TLE update: 1 day ago

TLE from 1 day ago
0 DMSP 5D-2 F13 DEB
1 40478U 95015BW  25295.32460634  .00004405  00000-0  22777-2 0  9994
2 40478  98.9812 240.0807 0064834 151.3227 209.1535 14.14389025543496
Epoch: 2025-10-22T07:47Z
TLE epoch observation values (Epoch: 2025-10-22T07:47:25.987Z)
Latitude
-0.00008°
Longitude
92.22259°
Altitude
888.264 km
Speed
7.387 km/s
True Right ascension
16h 00m 19s
True Declination
0° 00' 00"
Sunlit
Object was in daylight at epoch
Visualization orbit readout
Latitude
Unknown
Longitude
Unknown
Altitude
Unknown
Speed
Unknown
Apparent Right ascension
Unknown
Apparent Declination
Unknown
Sunlit
N/A
Visualization observer readout
Local Sidereal Time
08:52:48
Azimuth
Unknown
Elevation
Unknown
Doppler factor
Unknown
Orbital elements
Apogee altitude
888.379 km
Perigee altitude
794.762 km
Semi-major axis
7,219.707 km
Eccentricity
0.00648
Inclination
98.9812°
RAAN
240.0807°
Arg. of periapsis
151.3227°
True anomaly
208.79412°
Mean anomaly
209.1535°
Eccentric anomaly
208.97356°
Mean motion
3.53805 °/min
Orbital period
101.75 mins
BSTAR
0.0022777

Documentation

Showing up to 5 results
|